Simultaneous Nadir Overpasses (SNOs) Predictions

Prediction of SNOs between GOES-16 and LANDSAT-8 Satellite Orbit:

Table of predicted SNOs for the next 14.0 days since TLE Epoch: 3/25/2023
Index Date Time (GOES-16) GOES-16 Lat,Lon LANDSAT-8 Lat,Lon Distance(km) Time Diff (sec)
1 03/26/2023 14:54:07 0.06, -75.20 -0.82, -70.94 483.52 80
2 03/27/2023 03:18:11 -0.06, -75.20 -0.28, -76.14 107.29 80
3 03/29/2023 03:03:19 -0.05, -75.20 0.37, -73.18 229.44 80
4 03/29/2023 15:24:33 0.06, -75.21 0.73, -78.34 356.23 80
5 03/31/2023 15:12:32 0.05, -75.22 0.10, -75.38 18.43 68
6 04/02/2023 15:02:48 0.05, -75.24 -0.58, -72.43 320.50 80
7 04/03/2023 03:24:10 -0.05, -75.25 -0.56, -77.61 269.35 80
8 04/05/2023 03:09:16 -0.05, -75.28 0.10, -74.66 70.78 80
9 04/07/2023 02:57:01 -0.05, -75.31 0.73, -71.69 411.60 80
10 04/07/2023 15:18:15 0.05, -75.32 0.40, -76.84 173.30 80
